This is the latest recevied weather packets stored in our database for station/object KB3KAV. If no packets are shown the sender has not sent any weather packets the latest 10 day(s).
| Time | Temp. | Humidity | Pressure | Rain* | Wind** | Luminosity | Snow |
|---|---|---|---|---|---|---|---|
| 1778218853 | 5.56° C | 95% | 1041.4 hPa | 0 mm | - | 0 W/m² | - |
| 1778218248 | 5.56° C | 94% | 1041.3 hPa | 0 mm | - | 0 W/m² | - |
| 1778217647 | 5.56° C | 94% | 1041.6 hPa | 0 mm | - | 0 W/m² | - |
| 1778217045 | 5.56° C | 93% | 1041.4 hPa | 0 mm | - | 0 W/m² | - |
| 1778216444 | 6.11° C | 93% | 1041.3 hPa | 0 mm | - | 0 W/m² | - |
| 1778215844 | 6.11° C | 92% | 1041 hPa | 3.05 mm | - | 0 W/m² | - |
| 1778215243 | 6.11° C | 92% | 1041.4 hPa | 0 mm | - | 0 W/m² | - |
| 1778214637 | 6.11° C | 91% | 1041.5 hPa | 0 mm | - | 0 W/m² | - |
| 1778214037 | 6.67° C | 91% | 1041.3 hPa | 3.05 mm | - | 0 W/m² | - |
| 1778213435 | 6.67° C | 92% | 1041.2 hPa | 6.1 mm | - | 0 W/m² | - |
| 1778212836 | 7.22° C | 92% | 1041.1 hPa | 0 mm | - | 0 W/m² | - |
| 1778212235 | 7.22° C | 91% | 1040.5 hPa | 0 mm | - | 0 W/m² | - |
| 1778211635 | 7.22° C | 90% | 1040.1 hPa | 0 mm | - | 0 W/m² | - |
| 1778211031 | 7.22° C | 88% | 1040 hPa | 1.78 mm | - | 0 W/m² | - |
| 1778210430 | 8.33° C | 85% | 1039.8 hPa | 3.05 mm | - | 0 W/m² | - |
| 1778209828 | 7.78° C | 82% | 1040.3 hPa | 0 mm | - | 0 W/m² | - |
| 1778209224 | 7.78° C | 81% | 1039.8 hPa | 0 mm | - | 0 W/m² | - |
| 1778208622 | 7.78° C | 80% | 1039.2 hPa | 0 mm | - | 0 W/m² | - |
| 1778208021 | 7.78° C | 79% | 1039.3 hPa | 0 mm | - | 0 W/m² | - |
| 1778207415 | 7.78° C | 79% | 1039.1 hPa | 0 mm | - | 0 W/m² | - |
| 1778206813 | 7.22° C | 80% | 1038.8 hPa | 0 mm | - | 0 W/m² | - |
| 1778206211 | 7.22° C | 79% | 1038.8 hPa | 0 mm | - | 0 W/m² | - |
| 1778205606 | 7.78° C | 79% | 1038.7 hPa | 0 mm | - | 0 W/m² | - |
| 1778205006 | 7.78° C | 77% | 1039 hPa | 0 mm | - | 0 W/m² | - |
| 1778204405 | 7.78° C | 77% | 1038.8 hPa | 0 mm | - | 0 W/m² | - |
* Rain latest hour (hover to see other rain measurements)
** Current wind speed in m/s (hover to see current wind gust speed)